Darstellungsparameter: Aktuell verwendete Einstellungen:
Skalierung der Graphiken ... ?
xyx+y,   Skalierungsfaktor:      Skalierung: Modus: x, Faktor: 1
Darstellungszeitraum ... ?
Vom - - bis: - -   Zeitraum: 28.02.2021 - 28.02.2021
Min/Max/Avg-Anzeige ... ?
Zeige MMA aktuell
Zeige MMA Monat
Zeige MMA alles
Zeige --A aktuell
Zeige --A Monat
Zeige --A alles
Keine MMA-Anzeige
MMA:
Average (ber die Originaldaten)
MMA-Basis: 28.02.2021 - 28.02.2021
Quicknavigation für Darstellung... ?
Tage:      1T, 2T, 3T, 5T -1T -2T -3T -5T +1T +2T +3T +5T
Wochen: 1W, 2W, 3W -1W -2W -3W +1W +2W +3W
Monate: 1M, 3M, 6M -1M -3M -6M +1M +3M +6M
Jahre:    1J, 3J, 5J, 10J -1J -3J -5J -10J +1J +3J +5J +10J
Nutze für die Darstellung ... ?
Originaldaten oder Mittelwerte auf ...
Stundenbasis Tagesbasis Wochenbasis
Monatsbasis Jahresbasis      Datenbasis: Original-Daten
Darstellen als:
Statistik (Auto) Statistik J:M      Darstellung:

Der gewünschte Datumsbereich war nicht gültig/verfügbar und wurde korrigiert....
Das angegebene Enddatum (16.10.2030 23:59:59) liegt in der Zukunft.
Das angegebene Startdatum (16.10.2030 00:00:00) liegt in der Zukunft.


Zur Graphik,    zurück zur Übersicht aller Sensoren.
 
Tabellarische Datenbersicht: ?
 
Sensor: Nr:Datum:Temp:Abs-Feuchte:Windchill:Wind:
Aussen-T/F 1 28-02-2021 01:00:00 5.8 C 5.8 g/m*3 5.8 C 3.2 km/h
2 28-02-2021 01:05:00 5.8 C 5.8 g/m*3 5.8 C 4.8 km/h
3 28-02-2021 01:10:00 5.8 C 5.8 g/m*3 5.8 C 4.8 km/h
4 28-02-2021 01:15:00 5.8 C 5.8 g/m*3 4.52 C 6.4 km/h
5 28-02-2021 01:20:00 5.8 C 5.73 g/m*3 5.8 C 0 km/h
6 28-02-2021 01:25:00 5.8 C 5.8 g/m*3 5.8 C 3.2 km/h
7 28-02-2021 01:30:00 5.8 C 5.73 g/m*3 4.05 C 8.1 km/h
8 28-02-2021 01:35:00 5.8 C 5.73 g/m*3 3.68 C 9.7 km/h
9 28-02-2021 01:40:00 5.8 C 5.73 g/m*3 5.8 C 4.8 km/h
10 28-02-2021 01:45:00 5.9 C 5.7 g/m*3 4.17 C 8.1 km/h
11 28-02-2021 01:50:00 5.9 C 5.77 g/m*3 5.9 C 4.8 km/h
12 28-02-2021 01:55:00 5.9 C 5.77 g/m*3 5.9 C 4.8 km/h
13 28-02-2021 02:00:00 5.8 C 5.73 g/m*3 4.52 C 6.4 km/h
14 28-02-2021 02:05:00 5.8 C 5.73 g/m*3 5.8 C 1.6 km/h
15 28-02-2021 02:10:00 5.8 C 5.73 g/m*3 5.8 C 3.2 km/h
16 28-02-2021 02:15:00 5.7 C 5.69 g/m*3 5.7 C 3.2 km/h
17 28-02-2021 02:20:00 5.7 C 5.69 g/m*3 5.7 C 1.6 km/h
18 28-02-2021 02:25:00 5.7 C 5.76 g/m*3 5.7 C 0 km/h
19 28-02-2021 02:30:00 5.7 C 5.76 g/m*3 5.7 C 0 km/h
20 28-02-2021 02:35:00 5.6 C 5.73 g/m*3 3.81 C 8.1 km/h
21 28-02-2021 02:40:00 5.6 C 5.59 g/m*3 3.81 C 8.1 km/h
22 28-02-2021 02:45:00 5.6 C 5.59 g/m*3 5.6 C 3.2 km/h
23 28-02-2021 02:50:00 5.6 C 5.66 g/m*3 4.29 C 6.4 km/h
24 28-02-2021 02:55:00 5.6 C 5.66 g/m*3 5.6 C 4.8 km/h
25 28-02-2021 03:00:00 5.6 C 5.66 g/m*3 5.6 C 4.8 km/h
Sensor: Nr:Datum:Temp:Abs-Feuchte:Windchill:Wind:
Aussen-T/F 26 28-02-2021 03:05:00 5.6 C 5.59 g/m*3 5.6 C 4.8 km/h
27 28-02-2021 03:10:00 5.5 C 5.55 g/m*3 5.5 C 4.8 km/h
28 28-02-2021 03:15:00 5.5 C 5.55 g/m*3 5.5 C 3.2 km/h
29 28-02-2021 03:20:00 5.4 C 5.51 g/m*3 3.2 C 9.7 km/h
30 28-02-2021 03:25:00 5.4 C 5.44 g/m*3 3.58 C 8.1 km/h
31 28-02-2021 03:30:00 5.4 C 5.44 g/m*3 4.06 C 6.4 km/h
32 28-02-2021 03:35:00 5.4 C 5.37 g/m*3 3.2 C 9.7 km/h
33 28-02-2021 03:40:00 5.4 C 5.44 g/m*3 5.4 C 3.2 km/h
34 28-02-2021 03:45:00 5.4 C 5.44 g/m*3 5.4 C 3.2 km/h
35 28-02-2021 03:50:00 5.3 C 5.41 g/m*3 5.3 C 1.6 km/h
36 28-02-2021 03:55:00 5.3 C 5.41 g/m*3 5.3 C 1.6 km/h
37 28-02-2021 04:00:00 5.2 C 5.37 g/m*3 5.2 C 0 km/h
38 28-02-2021 04:05:00 5.2 C 5.37 g/m*3 5.2 C 3.2 km/h
39 28-02-2021 04:10:00 5.2 C 5.37 g/m*3 5.2 C 1.6 km/h
40 28-02-2021 04:15:00 5.2 C 5.44 g/m*3 5.2 C 0 km/h
41 28-02-2021 04:20:00 5.1 C 5.4 g/m*3 5.1 C 0 km/h
42 28-02-2021 04:25:00 5.1 C 5.47 g/m*3 5.1 C 0 km/h
43 28-02-2021 04:30:00 5 C 5.44 g/m*3 5 C 0 km/h
44 28-02-2021 04:35:00 4.9 C 5.47 g/m*3 4.9 C 0 km/h
45 28-02-2021 04:40:00 4.9 C 5.4 g/m*3 3.48 C 6.4 km/h
46 28-02-2021 04:45:00 5 C 5.44 g/m*3 5 C 3.2 km/h
47 28-02-2021 04:50:00 5 C 5.44 g/m*3 5 C 0 km/h
48 28-02-2021 04:55:00 5 C 5.44 g/m*3 5 C 1.6 km/h
49 28-02-2021 05:00:00 4.9 C 5.47 g/m*3 4.9 C 0 km/h
50 28-02-2021 05:05:00 4.9 C 5.4 g/m*3 4.9 C 1.6 km/h
Sensor: Nr:Datum:Temp:Abs-Feuchte:Windchill:Wind:
Aussen-T/F 51 28-02-2021 05:10:00 4.9 C 5.4 g/m*3 3.48 C 6.4 km/h
52 28-02-2021 05:15:00 5 C 5.44 g/m*3 3.59 C 6.4 km/h
53 28-02-2021 05:20:00 5 C 5.44 g/m*3 5 C 3.2 km/h
54 28-02-2021 05:25:00 5 C 5.44 g/m*3 5 C 0 km/h
55 28-02-2021 05:30:00 4.9 C 5.47 g/m*3 4.9 C 0 km/h
56 28-02-2021 05:35:00 4.7 C 5.4 g/m*3 4.7 C 0 km/h
57 28-02-2021 05:40:00 4.6 C 5.36 g/m*3 4.6 C 1.6 km/h
58 28-02-2021 05:45:00 4.5 C 5.32 g/m*3 4.5 C 3.2 km/h
59 28-02-2021 05:50:00 4.4 C 5.29 g/m*3 4.4 C 3.2 km/h
60 28-02-2021 05:55:00 4.3 C 5.32 g/m*3 4.3 C 0 km/h
61 28-02-2021 06:00:00 4.3 C 5.32 g/m*3 4.3 C 0 km/h
62 28-02-2021 06:05:00 4.2 C 5.35 g/m*3 4.2 C 1.6 km/h
63 28-02-2021 06:10:00 4.1 C 5.31 g/m*3 4.1 C 0 km/h
64 28-02-2021 06:15:00 3.9 C 5.24 g/m*3 3.9 C 0 km/h
65 28-02-2021 06:20:00 3.6 C 5.14 g/m*3 3.6 C 0 km/h
66 28-02-2021 06:25:00 3.3 C 5.04 g/m*3 3.3 C 0 km/h
67 28-02-2021 06:30:00 3.1 C 5.03 g/m*3 3.1 C 0 km/h
68 28-02-2021 06:35:00 2.9 C 4.96 g/m*3 2.9 C 3.2 km/h
69 28-02-2021 06:40:00 2.7 C 4.95 g/m*3 2.7 C 1.6 km/h
70 28-02-2021 06:45:00 2.6 C 4.92 g/m*3 2.6 C 0 km/h
71 28-02-2021 06:50:00 2.4 C 4.85 g/m*3 2.4 C 1.6 km/h
72 28-02-2021 06:55:00 2.3 C 4.88 g/m*3 2.3 C 0 km/h
73 28-02-2021 07:00:00 2.2 C 4.84 g/m*3 2.2 C 0 km/h
74 28-02-2021 07:05:00 2.1 C 4.87 g/m*3 2.1 C 1.6 km/h
75 28-02-2021 07:10:00 2 C 4.83 g/m*3 2 C 0 km/h
Sensor: Nr:Datum:Temp:Abs-Feuchte:Windchill:Wind:
Aussen-T/F 76 28-02-2021 07:15:00 1.9 C 4.86 g/m*3 1.9 C 1.6 km/h
77 28-02-2021 07:20:00 1.8 C 4.77 g/m*3 1.8 C 0 km/h
78 28-02-2021 07:25:00 1.6 C 4.7 g/m*3 1.6 C 0 km/h
79 28-02-2021 07:30:00 1.4 C 4.69 g/m*3 1.4 C 0 km/h
80 28-02-2021 07:35:00 1.3 C 4.66 g/m*3 1.3 C 0 km/h
81 28-02-2021 07:40:00 1.3 C 4.72 g/m*3 1.3 C 0 km/h
82 28-02-2021 07:45:00 1.2 C 4.68 g/m*3 1.2 C 0 km/h
83 28-02-2021 07:50:00 1.1 C 4.65 g/m*3 1.1 C 0 km/h

Legende:
   Min
   Max


Maximal/Minimal-Werte vom 28.02.2021 - 28.02.2021

Sensor Min Max Avg
Temp
(Aussen-T/F)
1.1 °C
28-02-2021  07:50:00
5.9 °C
28-02-2021  01:45:00
4.56 °C
Abs-Feuchte
(Aussen-T/F)
4.65 g/m*3
28-02-2021  07:50:00
5.8 g/m*3
28-02-2021  01:00:00
5.31 g/m*3
Windchill
(Aussen-T/F)
1.1 C
28-02-2021  07:50:00
5.9 C
28-02-2021  01:50:00
4.21 C

Die Daten stammen von einer Davis Vantage Pro 2 Wetter-Station und werden unter Linux mit der Software wview2wettercgi und aufbereitet. Alle Angaben erfolgen ohne Gewähr für ihre Vollständigkeit oder Richtigkeit.
Kontakt: Rainer Krienke krienke@uni-koblenz.de . Meine Webseiten an der Uni Koblenz oder privat.
Version: $Revision: 0.78 $